STARLINK-32435, 61259

Orbit data source: Space-Track

STARLINK-32435, 61259 is a payload satellite owned by SpaceX/Seattle (US) in LEO that was launched on Wed, 25 Sep 2024 UTC via an FALCON 9 launch vehicle from the Air Force Western Test Range (AFWTR). Payload-class satellites include a variety of spacecraft equipped with specific instruments for various scientific and technological missions. These include communications satellites like Starlink; space stations such as the ISS; scientific satellites like the Hubble; Earth observation satellites from companies like Planet Labs, Umbra, and HawkEye 360; GPS; miniature CubeSats for education and research; and military/defense satellites.

Loading next visibility...
Identifier
61259, 2024-175S
Orbit
LEO
Country
Flag of USUS
Related business
Manufacturer
SpaceX/Seattle
Mission
Operational Commercial Communications
Bus & Motor
STARLINK V2M, Unknown motor
Mass
730 kg wet, ~700 kg dry
Launch date (UTC)
2024-09-25 (1 year ago)
Launch vehicle
FALCON 9
Launch site
Air Force Western Test Range (AFWTR)
Object type
Payload
Rocket body
Debris
Shape & HBR
Box + 2 Pan, 17.7 m
Radar Cross Section
33.884 m², Large (>1 m²)

Expand to show TLE details & history
Last TLE update: 16 hours ago

TLE from 16 hours ago
0 STARLINK-32435
1 61259U 24175S   25347.68424814  .00003381  00000-0  12630-3 0  9990
2 61259  53.1598 233.6846 0001835  64.6801 295.4390 15.30186200 68282
Epoch: 2025-12-13T16:25Z
TLE epoch observation values (Epoch: 2025-12-13T16:25:19.039Z)
Latitude
0.00001°
Longitude
-95.25271°
Altitude
475.616 km
Speed
7.63 km/s
True Right ascension
15h 34m 44s
True Declination
0° 00' 00"
Sunlit
Object was in daylight at epoch
Visualization orbit readout
Latitude
Unknown
Longitude
Unknown
Altitude
Unknown
Speed
Unknown
Apparent Right ascension
Unknown
Apparent Declination
Unknown
Sunlit
N/A
Visualization observer readout
Local Sidereal Time
06:30:03
Azimuth
Unknown
Elevation
Unknown
Doppler factor
Unknown
Orbital elements
Apogee altitude
476.77 km
Perigee altitude
474.255 km
Semi-major axis
6,853.65 km
Eccentricity
0.00018
Inclination
53.1598°
RAAN
233.6846°
Arg. of periapsis
64.6801°
True anomaly
295.42001°
Mean anomaly
295.439°
Eccentric anomaly
295.4295°
Mean motion
3.82525 °/min
Orbital period
94.11 mins
BSTAR
0.0001263
Loading maneuver chart data...
Computing Atmospheric mass density...
Loading historical data...
Loading historical data...
Loading historical data...
Loading historical data...
Loading historical data...
Loading historical data...
Loading historical data...

Documentation

Showing up to 5 results
|